953  
ASUS43 KEAX 290710  
RWREAX  
 
WEATHER ROUNDUP FOR EASTERN KANSAS AND NORTHWEST MISSOURI  
NATIONAL WEATHER SERVICE KANSAS CITY/PLEASANT HILL MO  
200 AM CDT WED MAR 29 2017  
 
KSZ040-057-103>105-MOZ028-029-037-043-290800-   
..KANSAS CITY METROPOLITAN AREA
 
 
 
CITY SKY/WX TMP DP RH WIND PRES REMARKS
 
K.C. INTL CLOUDY 52 49 89 E20 29.94F  
K.C. DOWNTOWN CLOUDY 54 49 83 E18G29 29.91F  
LEES SUMMIT CLOUDY 53 50 89 E16G31 29.92F  
OLATHE - IXD CLOUDY 53 48 83 E23G36 29.87S  
OLATHE - OJC CLOUDY 52 50 93 E16G29 29.88F  
LAWRENCE TSTM 53 50 89 NE14G23 29.92R  
 

 
 
MOZ001>008-011>017-020>025-030>033-038>040-044>046-053-054-290800-   
..NORTHERN AND CENTRAL MISSOURI
 
 
 
CITY SKY/WX TMP DP RH WIND PRES REMARKS
 
ST. JOSEPH CLOUDY 52 48 86 NE10 29.99F  
MOSBY CLOUDY 52 46 82 E13 29.97S  
WARRENSBURG CLOUDY 52 46 82 E15G25 29.95F  
WHITEMAN AFB CLOUDY 53 53 100 E15G25 29.93F  
CLINTON CLOUDY 54 48 82 E17G23 29.90F  
SEDALIA CLOUDY 54 49 83 E22 29.97S  
WARSAW NOT AVBL  
CHILLICOTHE N/A 51 47 86 E9 30.01F  
KIRKSVILLE CLOUDY 49 46 90 E9 30.08F  
 

 
 
MOZ041-047>049-056>058-063>065-088>090-097-290800-   
..EASTERN AND SOUTHERN MISSOURI
 
 
 
CITY SKY/WX TMP DP RH WIND PRES REMARKS
 
ST. LOUIS INTL CLOUDY 54 46 74 E12 30.09S  
SPIRIT OF STL CLOUDY 53 48 83 NE7 30.08S  
COLUMBIA CLOUDY 52 49 89 E14 30.02F  
JEFFERSON CITY CLOUDY 56 48 74 E13 30.02F  
ROLLA CLOUDY 52 48 86 E14 30.00F  
OSAGE BEACH CLOUDY 53 48 83 E9 29.98  
SPRINGFIELD MOCLDY 56 49 77 SE20 29.88F  
BRANSON LGT RAIN 55 52 88 E17G25 29.91F  
JOPLIN CLOUDY 61 54 77 SE21G35 29.76F  
WEST PLAINS CLOUDY 54 49 83 E13 29.98F  
 

 
 
IAZ060-094-KSZ022-034>040-054-083-096-NEZ052-066-093-290800-    
..KANSAS...SOUTHEAST NEBRASKA AND IOWA
 
 
 
CITY SKY/WX TMP DP RH WIND PRES REMARKS
 
TOPEKA TSTM 51 51 100 NE9 29.94R FOG  
MANHATTAN HVY RAIN 51 51 100 NE21 29.92F FOG  
EMPORIA HVY RAIN 50 50 100 NE22G28 29.82R FOG  
CHANUTE TSTM 56 52 86 SW21G32 29.80R  
WICHITA TSTM 51 51 100 N28G37 29.79F FOG  
OMAHA LGT RAIN 49 42 77 NE7 30.09F  
LINCOLN LGT RAIN 46 44 93 NE13 30.06F FOG  
FALLS CITY CLOUDY 50 47 89 NE10 30.00F  
LAMONI CLOUDY 49 45 86 E10 30.06F  
DES MOINES CLOUDY 49 44 83 E8 30.11R  
 

 
 
 
 
CLICK HERE TO GO TO PREVIOUS BULLETINS.

The Nexlab MO Page
The Nexlab KS Page Main Text Page